This is the latest recevied weather packets stored in our database for station/object EA5DFV. If no packets are shown the sender has not sent any weather packets the latest 10 day(s).
| Time | Temp. | Humidity | Pressure | Rain* | Wind** | Luminosity | Snow |
|---|---|---|---|---|---|---|---|
| 1777824512 | 20.56° C | 74% | 1012.2 hPa | 0 mm | - | 229 W/m² | - |
| 1777824213 | 20.56° C | 73% | 1012.2 hPa | 0 mm | - | 142 W/m² | - |
| 1777823904 | 21.11° C | 73% | 1012 hPa | 0 mm | - | 120 W/m² | - |
| 1777823614 | 21.11° C | 72% | 1012 hPa | 0 mm | - | 232 W/m² | - |
| 1777823308 | 21.11° C | 72% | 1012.1 hPa | 0 mm | - | 223 W/m² | - |
| 1777823004 | 21.11° C | 72% | 1012.2 hPa | 0 mm | - | 264 W/m² | - |
| 1777822714 | 21.11° C | 72% | 1012.2 hPa | 0 mm | - | 272 W/m² | - |
| 1777822408 | 21.67° C | 72% | 1012.3 hPa | 0 mm | - | 274 W/m² | - |
| 1777822105 | 21.67° C | 71% | 1012.4 hPa | 0 mm | - | 218 W/m² | - |
| 1777821816 | 21.67° C | 70% | 1012.4 hPa | 0 mm | - | 200 W/m² | - |
| 1777821506 | 22.22° C | 71% | 1012.5 hPa | 0 mm | - | 332 W/m² | - |
| 1777821200 | 22.22° C | 69% | 1012.5 hPa | 0 mm | - | 376 W/m² | - |
| 1777820913 | 22.22° C | 69% | 1012.4 hPa | 0 mm | - | 292 W/m² | - |
| 1777820604 | 22.22° C | 67% | 1012.5 hPa | 0 mm | - | 475 W/m² | - |
| 1777820313 | 22.22° C | 67% | 1012.6 hPa | 0 mm | - | 336 W/m² | - |
| 1777820007 | 22.22° C | 67% | 1012.6 hPa | 0 mm | - | 387 W/m² | - |
| 1777819704 | 22.22° C | 67% | 1012.6 hPa | 0 mm | - | 622 W/m² | - |
| 1777819414 | 22.22° C | 67% | 1012.7 hPa | 0 mm | - | 777 W/m² | - |
| 1777819107 | 22.22° C | 68% | 1012.7 hPa | 0 mm | - | 654 W/m² | - |
| 1777818800 | 22.22° C | 66% | 1012.7 hPa | 0 mm | - | 475 W/m² | - |
| 1777818511 | 22.22° C | 69% | 1012.8 hPa | 0 mm | - | 819 W/m² | - |
| 1777818207 | 21.67° C | 71% | 1012.9 hPa | 0 mm | - | 724 W/m² | - |
| 1777817918 | 21.67° C | 71% | 1013 hPa | 0 mm | - | 949 W/m² | - |
| 1777817608 | 21.11° C | 72% | 1013.1 hPa | 0 mm | - | 728 W/m² | - |
| 1777817303 | 21.11° C | 70% | 1013.2 hPa | 0 mm | - | 394 W/m² | - |
* Rain latest hour (hover to see other rain measurements)
** Current wind speed in m/s (hover to see current wind gust speed)